カタログに戻る

OKEAN 4

運用中科学PO
NORAD 23317·PAYLOAD·🇷🇺 Russia

打ち上げ Oct 11, 1994 から Plesetsk Cosmodrome

Loading…

次のパス (今後24時間)

TLE

最新Source: Space-Track

元期: Sep 14, 2026, 04:35 UTC

1 23317U 94066A   26257.19144311  .00001396  00000-0  11731-3 0  9992
2 23317  82.5363 169.9169 0015752 340.0669  19.9936 14.97486721728658

AllMySatでOKEAN 4をリアルタイム追跡

Download on the App Store